Вернуться в каталог

CZ-3C DEB

LostGTO
NORAD 40868·DEBRIS·🇨🇳 China

Запущен Feb 24, 2012 с Xichang Satellite Launch Center

Loading…

TLE

УстаревшееSource: Space-Track

Эпоха: Aug 21, 2025, 07:54 UTC

1 40868U 12008AJ  25233.32926772 -.00000099  00000-0  00000-0 0  9999
2 40868  22.2354 358.0661 6805188 284.9150  13.7423  2.28087707989209

Отслеживайте CZ-3C DEB в реальном времени с AllMySat

Download on the App Store